RH
9 10 12 15 16 16 18 19 19 20 21 22 22 22 21 21 21 20 19 16 14 13 13 13 14 14 15 16 12 13 14 15 16 15 20 21 21 24 28 26 24 26 21 20 19 20 19
12 16 17 17 19 20 20 23 25 26 27 26 25 23 22 20 18 18 18 18 18 18 17 17 16 16 21 26 14 13 15 17 19 19 20 22 22 23 25 24 25 24 23 22 21 20 21
18 17 18 20 22 24 27 29 29 27 26 25 23 20 18 16 14 14 14 16 16 16 17 18 19 24 27 20 19 18 20 20 21 23 24 21 22 25 26 27 24 25 27 28 27 26 25
18 21 22 24 27 30 32 32 30 30 29 27 21 18 15 14 12 12 11 12 12 13 13 15 18 23 22 18 20 20 24 27 26 24 25 25 27 29 29 27 28 29 29 30 24 27 26
23 24 26 29 32 33 35 36 34 33 32 29 20 16 15 12 11 10 9 9 9 10 14 17 18 24 22 20 21 21 23 27 29 32 33 30 32 34 33 35 37 34 34 32 29 28 28
27 28 32 33 35 37 37 33 31 28 28 21 15 13 12 10 9 8 7 7 7 8 16 19 25 27 18 19 18 19 20 21 27 35 41 37 36 36 37 40 38 36 39 34 31 29 30
34 37 37 37 35 36 34 31 28 29 25 16 13 12 11 9 9 10 8 7 7 10 11 13 14 22 16 18 21 20 21 24 32 34 40 37 41 40 38 35 35 36 36 34 31 30 32
38 38 36 36 34 35 34 28 27 26 20 15 13 13 11 9 10 13 11 15 26 24 28 13 17 22 24 27 25 25 27 27 33 36 37 38 37 33 35 38 40 41 40 34 34 36 37
40 37 37 37 36 35 32 29 25 20 17 17 18 17 14 11 11 13 16 20 23 23 28 19 25 27 29 30 29 27 29 32 35 41 40 39 32 30 36 36 39 39 39 37 38 41 41
40 37 35 35 36 34 32 26 21 20 20 19 17 16 16 12 15 14 19 18 19 23 34 23 32 36 33 33 35 32 36 37 40 40 44 45 40 38 39 40 48 44 39 43 45 52 55
39 38 37 36 37 34 28 23 23 22 20 18 16 14 15 20 17 19 20 21 21 28 20 31 35 37 33 32 33 40 48 49 49 49 52 48 46 51 54 48 58 45 53 54 56 60 61
39 38 37 38 33 28 26 26 25 22 19 16 16 18 18 16 20 20 20 23 27 38 35 38 41 37 34 34 40 41 48 60 67 66 70 61 60 66 61 60 67 61 63 66 67 68 77
39 38 36 35 34 30 28 27 25 21 18 16 18 19 18 18 18 18 20 27 31 37 36 46 42 36 39 41 39 43 46 57 72 80 82 72 68 65 72 76 74 77 80 92 87 85 72
37 37 36 34 32 30 28 24 22 19 17 15 18 18 18 19 20 20 22 32 37 46 51 46 44 41 44 44 42 45 47 58 82 87 94 95 75 76 79 80 84 77 78 89 89 82 67
36 34 33 32 31 28 25 22 20 17 16 15 16 17 18 17 17 24 30 46 54 54 51 49 43 47 44 40 51 49 50 59 67 73 87 94 84 70 69 78 84 95 77 63 80 71 79
35 34 33 32 29 26 24 21 19 18 18 17 16 16 18 15 14 14 23 45 36 35 34 37 49 49 56 52 63 67 60 51 66 75 76 81 90 70 64 68 77 93 95 94 81 94 93
35 34 32 29 27 25 23 21 21 20 18 16 15 17 18 17 15 20 33 34 32 30 33 38 47 57 63 69 69 71 67 59 67 81 84 79 81 58 65 73 71 68 92 92 95 97 91
35 32 30 28 27 25 23 23 22 19 17 16 18 19 19 20 20 30 34 36 34 32 31 37 39 47 55 72 74 74 75 73 76 85 85 83 88 80 58 56 86 92 94 98 96 92 96
34 31 30 28 25 23 23 22 21 20 20 23 23 23 22 28 33 37 35 35 37 38 39 43 50 57 69 79 86 78 79 76 77 81 87 72 77 82 51 47 63 77 89 97 96 98 97
33 31 28 25 24 24 23 22 21 21 22 22 26 30 28 32 36 40 42 39 41 42 47 49 55 63 73 72 84 77 66 64 64 62 62 78 83 77 76 54 63 88 88 95 97 97 96
31 28 26 25 25 24 24 24 22 21 21 24 29 34 35 34 36 42 49 47 51 54 50 57 59 66 77 77 63 62 60 56 53 60 67 78 75 72 66 70 77 80 91 95 94 96 95
30 28 27 27 26 26 25 23 23 24 24 26 29 35 38 36 37 42 48 55 60 65 75 67 74 60 67 78 78 70 74 67 66 63 71 88 85 90 77 79 95 95 97 95 94 91 94
30 29 28 27 27 26 24 24 24 25 26 31 36 37 44 36 39 47 49 58 63 75 68 81 79 71 68 71 78 74 69 66 70 86 90 98 98 98 81 83 96 98 98 95 96 97 98
30 29 28 29 27 25 24 24 23 23 26 31 39 42 46 43 46 51 56 61 65 78 84 82 87 90 78 69 65 65 66 75 90 98 98 98 97 97 96 90 95 95 99 98 96 96 95
31 29 29 26 25 24 22 21 23 24 26 29 34 44 51 49 50 46 55 64 75 79 81 88 89 92 87 85 73 69 71 74 96 96 87 85 93 97 97 98 98 98 98 99 98 97 92
30 30 28 26 24 22 23 26 25 24 25 24 22 34 48 57 49 65 74 91 94 79 65 77 88 87 90 91 88 87 93 92 91 87 83 76 78 89 96 98 98 98 98 99 98 91 98
31 28 26 23 20 20 23 21 21 19 21 20 19 33 47 62 80 87 81 97 98 91 74 81 86 88 82 88 94 95 95 94 97 93 85 80 80 89 92 99 98 97 99 100 97 99 96
29 27 24 20 17 13 9 11 14 14 24 22 20 40 43 56 68 65 64 72 74 77 85 89 87 85 88 89 93 95 97 96 95 96 96 95 96 98 96 97 97 98 96 97 99 97 96
27 24 19 13 8 5 5 6 14 17 23 21 24 28 37 52 58 62 70 79 87 86 89 89 96 99 98 96 94 96 97 97 98 97 91 94 97 98 99 99 99 100 99 100 99 98 96